Wind_Speed
5 4 7 11 14 15 12 9 8 5 5 4 5 4 7 5 4 5 4 6 8 6 5 6 10 10 11 8 6 7 6 9 13 13 10 8 7 6 7 7 7 7 6 8 12 9 8 12 14 17 20 22 22 23 25 25 25 24 23 23 23 22 22 21 21 21 20 21 21 22 23 24 23 23 23 22 20 19 18 16 14 13 12 11 10 8
5 7 13 16 13 9 7 6 7 7 8 8 5 4 6 6 5 5 5 5 6 6 2 7 12 9 8 6 3 6 8 9 11 13 12 10 8 6 7 8 7 7 7 9 10 7 9 14 16 17 19 21 21 21 23 23 24 23 22 23 23 21 20 20 21 20 20 21 21 23 26 26 25 23 24 23 21 19 18 15 14 13 12 12 12 10
7 12 15 12 6 3 4 6 7 8 8 8 5 4 5 5 4 4 5 5 4 4 2 8 11 5 3 4 3 5 6 5 5 8 11 12 10 7 7 8 9 10 9 9 8 6 10 14 14 15 16 18 20 19 20 21 22 22 21 21 21 20 20 20 20 20 20 19 20 24 27 27 25 24 23 22 20 18 16 15 13 12 11 10 10 10
8 10 9 7 6 6 6 6 8 7 8 8 5 4 4 4 5 4 5 4 2 3 6 9 8 4 2 3 2 3 4 5 6 6 7 8 8 9 9 8 10 12 10 8 8 6 9 13 13 14 15 15 16 17 17 19 19 20 20 20 21 20 19 19 19 19 18 19 22 25 25 25 26 25 23 21 19 17 16 15 13 11 9 8 8 8
6 3 9 9 8 10 8 7 9 6 7 8 7 6 4 4 7 5 3 4 5 5 10 12 6 1 2 3 2 2 5 7 8 10 8 6 6 7 8 8 9 11 11 11 10 6 8 13 13 14 16 15 15 16 16 17 18 19 20 20 20 19 19 19 18 18 19 23 25 25 25 24 24 23 21 20 19 17 16 15 13 11 9 8 8 8
6 3 12 12 11 13 11 9 9 8 6 8 8 8 7 6 6 4 6 6 5 2 6 8 4 2 2 4 4 3 6 8 8 10 11 9 8 7 9 10 9 10 10 12 13 11 10 13 15 16 18 17 16 16 17 17 17 18 19 19 19 18 18 18 17 19 23 25 27 27 26 24 22 20 17 18 18 16 16 15 13 12 9 8 9 9
4 6 12 14 12 12 12 9 10 10 7 7 6 8 9 9 5 4 7 5 3 3 7 7 5 2 2 5 7 7 9 10 9 11 12 11 10 9 9 9 9 9 9 10 12 13 12 13 15 16 18 18 17 16 17 17 17 17 17 18 18 17 17 17 19 23 26 26 26 25 24 22 21 19 18 16 16 16 16 15 13 12 10 9 9 10
8 10 12 14 13 10 10 10 10 11 8 6 4 8 8 10 8 6 5 4 3 2 4 6 4 4 4 6 8 9 11 11 11 12 12 12 11 10 8 8 10 10 10 9 10 11 12 14 15 16 17 18 18 18 18 17 17 17 17 17 17 17 17 18 21 24 24 25 24 22 21 20 18 19 19 17 16 16 15 15 13 12 12 11 10 11
9 12 12 13 12 9 9 9 9 10 8 5 3 6 6 8 8 6 5 6 3 4 2 5 3 4 3 4 7 11 11 12 13 15 14 13 14 11 9 10 11 11 10 9 10 11 12 15 17 17 18 19 19 20 19 18 17 17 17 17 17 17 17 18 20 21 21 21 21 21 20 19 18 18 19 18 17 16 15 16 15 14 13 13 13 13
8 10 11 11 11 10 8 7 9 10 7 4 5 6 4 5 4 6 6 5 2 4 6 10 7 4 2 4 8 10 11 12 11 13 13 12 13 11 10 11 11 9 9 9 10 10 13 16 19 20 20 20 20 20 20 18 17 18 17 18 18 18 18 18 18 19 19 19 19 19 19 18 19 19 19 18 17 16 16 17 17 15 15 15 15 15
7 8 8 9 10 9 7 6 8 9 5 3 6 6 5 4 1 2 4 2 3 3 7 13 13 6 3 5 9 10 12 15 12 10 12 12 13 12 10 11 11 9 9 8 9 10 13 17 20 22 21 21 21 20 20 19 19 20 19 19 19 19 19 18 18 19 20 19 18 18 17 18 20 21 20 19 18 17 18 19 18 17 17 17 17 17
7 9 9 7 8 8 6 5 7 7 6 4 6 4 3 4 2 1 2 1 4 6 6 12 13 7 4 5 10 12 11 16 17 14 17 18 16 14 11 11 11 9 9 9 9 10 12 14 18 21 21 21 22 21 21 21 22 22 20 19 20 18 18 18 18 20 20 19 18 17 17 19 21 21 19 19 19 19 19 19 18 18 18 18 18 18
7 9 9 6 6 10 9 6 5 6 8 8 7 4 3 2 1 2 3 3 5 6 6 9 11 7 5 6 15 18 12 16 20 18 20 22 19 15 13 12 10 9 10 9 8 10 9 10 14 18 19 21 23 23 22 23 23 22 21 22 22 20 19 19 20 20 19 18 18 19 19 20 21 20 19 19 20 19 19 18 17 17 18 19 19 20
4 6 8 8 5 9 12 8 6 7 9 10 8 6 5 4 3 4 4 2 3 5 6 9 12 6 4 3 14 21 19 20 21 17 18 21 19 16 14 13 11 10 11 9 9 10 8 10 15 17 18 20 23 24 23 24 24 24 24 24 24 23 22 22 21 20 19 18 19 20 21 21 21 20 20 21 21 20 18 16 16 17 18 19 20 20
6 5 8 11 7 9 13 11 9 7 7 10 7 6 5 4 5 4 4 3 5 4 3 6 8 4 3 3 9 16 15 14 14 11 12 13 12 13 12 12 11 11 11 9 9 10 10 13 18 19 19 21 23 24 24 24 26 26 25 25 25 23 21 21 20 19 19 18 19 20 21 22 22 21 21 21 20 19 16 15 16 18 18 19 20 20
7 5 7 10 7 9 12 11 9 7 5 6 4 6 5 5 5 3 4 6 5 3 1 4 3 2 3 3 4 8 10 8 11 10 11 11 9 11 12 11 11 11 11 10 10 10 12 15 20 20 20 22 23 24 25 25 26 27 25 24 23 22 20 19 19 18 18 18 19 20 22 22 22 22 22 22 20 18 15 15 17 18 19 19 19 19
6 4 6 10 9 10 13 11 10 9 6 4 5 6 6 6 6 3 3 2 3 5 3 1 2 1 1 5 5 9 13 10 12 13 13 12 11 13 13 11 12 12 12 11 10 11 13 16 20 21 21 22 24 24 26 26 27 27 25 23 22 20 19 18 18 18 18 19 20 20 21 22 22 22 22 21 20 18 16 16 18 20 20 19 19 19
6 3 6 10 13 12 11 12 10 8 7 5 5 7 4 4 3 3 3 2 3 4 4 1 5 4 1 2 2 8 12 11 12 14 14 12 13 15 13 12 13 13 13 12 11 12 14 17 20 22 21 23 25 26 26 27 27 26 24 23 22 20 19 19 18 18 18 19 20 20 21 21 20 20 20 20 19 18 18 19 20 21 20 20 19 19
4 3 6 8 13 10 7 9 9 7 6 5 5 7 6 5 3 1 3 3 2 3 2 1 4 4 3 5 6 10 13 13 13 14 15 15 16 15 14 14 13 13 13 12 12 11 13 17 21 23 22 23 26 27 27 27 27 26 24 22 21 20 19 19 18 18 18 17 18 19 20 20 19 19 19 19 18 17 19 21 21 21 20 20 19 19
1 4 4 6 10 9 4 6 7 7 6 4 3 4 4 4 5 3 3 4 4 4 2 2 1 3 4 8 13 16 15 16 16 15 16 18 18 16 14 14 13 14 13 13 12 11 13 18 22 24 25 25 27 28 28 28 28 26 25 23 22 21 19 19 18 18 17 16 17 17 18 19 18 17 18 18 18 19 21 21 20 20 20 20 20 20
1 3 3 4 4 8 4 6 9 8 6 5 3 3 3 3 3 3 2 3 4 4 4 3 1 5 5 7 15 19 17 18 20 19 17 17 17 16 15 15 13 13 13 13 12 11 13 19 22 23 25 27 27 27 28 29 28 27 26 24 23 22 20 19 18 17 16 15 15 16 17 18 18 18 19 19 20 21 21 20 20 20 20 20 19 19
1 2 2 1 3 7 6 7 9 9 7 6 4 4 5 5 4 3 2 2 3 4 5 5 3 6 5 7 13 16 17 18 20 20 17 17 18 16 15 15 14 14 14 13 13 12 13 18 21 23 25 27 26 25 26 28 28 27 26 24 23 22 20 18 17 16 16 16 16 18 19 20 20 21 21 21 22 22 22 21 21 20 20 20 19 18
4 1 3 2 3 7 7 4 7 10 8 6 4 3 4 4 4 6 4 4 1 2 1 4 3 6 5 8 13 14 16 17 17 18 16 15 16 15 14 15 14 13 13 13 13 12 14 18 22 23 24 25 25 25 26 27 27 27 26 24 23 21 18 17 17 18 17 18 19 20 21 20 21 22 22 23 24 23 22 22 21 20 20 20 19 17
5 2 3 3 3 2 3 3 3 6 6 4 2 2 3 4 4 5 5 4 3 2 1 3 2 5 5 6 11 11 12 13 13 14 15 13 12 13 15 15 14 13 13 13 12 11 15 19 20 21 22 23 23 25 26 26 27 27 25 24 22 19 17 18 20 19 18 19 20 20 20 21 22 23 23 24 24 23 23 22 21 21 20 19 18 16
4 3 3 3 2 2 2 3 2 1 3 3 3 2 3 5 6 4 2 3 1 4 5 5 4 6 5 3 8 8 8 10 10 10 13 14 13 13 14 14 13 13 13 14 13 12 14 16 17 20 21 21 22 24 25 26 27 26 25 24 22 19 19 21 21 18 19 21 21 21 23 24 24 24 24 25 24 24 23 22 22 21 19 18 16 15
3 3 3 5 4 4 5 4 4 3 3 3 3 3 4 4 8 5 2 4 1 3 4 5 5 4 3 4 10 9 10 11 10 11 11 12 14 14 14 14 13 14 14 16 15 14 13 14 16 20 21 21 22 23 24 26 26 25 25 24 22 21 22 22 19 19 21 22 22 23 24 25 25 25 25 24 25 24 23 23 22 20 18 16 15 14
3 2 2 6 6 6 6 6 5 5 4 4 5 4 5 3 7 7 4 4 4 3 3 4 5 4 2 7 11 11 12 13 12 13 12 10 12 13 14 14 14 14 14 15 14 14 13 13 15 20 22 22 23 24 25 26 26 26 26 25 23 23 23 21 20 22 24 24 24 25 25 24 25 25 24 24 25 23 22 22 22 19 17 14 13 14
3 3 1 6 6 7 7 6 3 5 6 4 6 6 5 3 6 8 4 5 4 4 3 7 5 8 7 9 13 12 12 12 12 15 14 12 13 13 13 14 15 14 13 14 14 14 15 14 14 19 23 24 24 24 24 26 26 27 27 26 26 25 23 23 24 25 25 25 25 25 24 25 24 25 25 25 24 23 22 22 21 18 17 14 13 14
4 3 4 3 3 4 4 1 3 2 5 6 7 8 5 4 7 7 5 6 6 5 7 7 6 10 10 12 15 16 15 14 14 14 13 13 13 14 14 15 16 16 16 16 16 16 16 15 14 17 22 25 27 26 24 25 25 25 25 26 26 25 24 24 25 25 25 26 26 25 25 25 25 25 26 25 24 23 22 21 20 18 16 14 14 15
4 1 3 2 2 3 3 3 5 3 3 5 6 8 7 6 8 8 6 6 7 5 7 7 7 6 9 12 15 16 14 13 12 11 12 14 15 16 17 17 17 17 18 18 17 16 16 15 16 19 22 24 27 27 26 25 25 26 26 26 27 26 24 26 26 25 26 27 26 26 26 26 26 26 26 26 24 23 23 22 20 19 17 16 16 16
3 1 4 4 4 5 5 2 4 5 1 5 6 8 7 5 5 4 4 5 6 1 1 7 8 3 3 6 8 8 8 10 11 13 14 15 16 17 17 17 17 17 17 17 16 15 15 15 16 19 22 25 28 28 27 26 27 27 27 27 28 27 26 27 27 26 27 27 27 28 27 27 27 27 26 26 25 25 25 23 22 20 18 17 16 16
4 1 4 5 4 4 5 2 3 7 5 1 6 9 7 5 4 3 4 5 7 5 4 6 6 5 3 6 8 8 10 12 13 15 14 13 15 18 18 18 17 17 17 17 16 16 16 16 17 19 22 26 30 30 29 28 28 28 28 28 29 29 28 28 29 28 28 29 29 29 29 28 28 27 27 27 26 26 26 25 23 21 19 17 16 16
4 3 2 4 3 4 5 1 4 7 6 2 7 8 7 5 4 3 3 4 6 8 7 5 7 6 7 10 10 10 12 13 13 14 14 14 15 17 18 19 19 19 19 18 18 18 18 18 20 22 25 27 30 31 31 32 31 30 31 32 31 31 30 30 30 30 29 30 30 30 29 29 28 28 28 27 27 27 27 26 24 22 19 18 17 17
4 6 1 1 3 2 6 4 7 6 1 5 6 5 6 6 7 6 4 6 7 6 5 5 4 5 9 13 14 13 14 15 15 14 15 16 16 15 16 17 18 17 17 16 17 17 17 18 22 25 26 27 28 30 31 32 33 32 31 32 31 31 31 31 31 31 30 30 30 30 30 30 29 29 28 28 27 27 27 26 24 21 19 19 19 18
5 6 2 1 3 1 3 5 6 1 5 6 7 5 5 6 8 8 2 2 5 6 7 7 6 8 12 13 15 17 17 16 15 15 15 17 17 17 17 16 16 16 16 16 16 15 17 20 23 25 26 26 27 29 29 29 30 30 31 32 32 32 31 31 31 31 31 31 30 30 31 30 30 29 29 29 28 27 26 25 24 21 20 19 19 18
6 5 2 1 2 1 2 4 3 5 6 5 7 5 2 1 3 6 3 4 2 4 7 9 10 12 13 12 13 14 13 12 11 11 13 16 17 18 18 17 17 17 17 18 18 18 21 25 26 27 28 27 28 31 31 30 32 33 32 32 32 31 31 31 30 30 31 31 31 31 32 31 31 30 30 30 29 28 27 25 24 22 21 20 19 18
8 5 2 2 2 2 3 2 2 3 5 5 4 2 2 2 4 7 4 2 4 3 4 8 10 11 11 9 7 7 8 9 6 5 8 12 15 16 17 18 19 19 19 20 23 25 28 30 30 30 31 30 30 32 32 32 33 33 32 31 31 30 30 31 31 31 31 31 32 32 32 32 32 31 31 31 30 28 27 26 25 23 22 21 20 18
7 4 3 2 0 2 4 1 1 2 2 5 6 5 3 3 6 7 6 1 5 5 2 7 11 12 11 8 7 9 10 8 6 6 8 9 11 11 12 14 16 19 20 23 25 26 28 30 31 31 32 32 32 33 34 35 34 33 31 30 30 31 31 31 31 32 32 32 33 33 33 33 33 33 32 31 30 29 28 27 26 25 23 22 20 19
8 5 5 4 1 1 4 2 1 2 4 7 7 8 6 4 4 6 6 1 6 7 3 5 10 11 11 11 10 10 9 7 6 8 8 12 12 12 12 11 12 18 23 27 29 29 29 31 31 31 32 32 32 34 36 37 37 34 31 31 31 31 30 30 32 33 33 33 33 34 34 34 34 33 33 32 31 30 29 28 27 25 24 22 21 19
8 4 4 5 1 1 3 2 1 2 4 6 5 7 7 3 5 8 3 5 7 6 4 3 7 8 8 10 11 11 10 9 10 10 11 14 13 12 14 15 16 18 22 26 30 31 32 33 32 30 31 32 33 36 38 38 36 33 31 31 30 30 30 31 33 33 33 33 34 34 34 35 35 34 34 33 31 30 29 28 27 26 25 23 21 20
4 3 2 4 3 1 3 1 3 3 5 6 5 6 6 2 8 6 5 7 5 5 6 4 6 7 8 9 9 8 9 9 8 8 11 14 13 11 13 18 22 24 26 29 31 32 32 33 33 31 30 32 34 36 37 36 33 31 30 29 29 30 31 32 33 33 34 34 34 35 35 35 36 35 34 32 31 30 30 29 27 27 26 25 23 22
2 2 1 3 4 2 3 2 2 3 4 3 3 4 2 4 3 4 6 4 3 5 5 3 4 5 9 11 9 9 9 5 4 8 12 14 14 13 12 15 18 21 25 29 32 33 31 29 30 30 29 32 36 36 36 35 32 30 30 29 29 30 31 32 33 34 35 35 35 35 36 36 36 35 33 32 32 32 31 28 27 26 26 25 24 23
4 3 1 2 4 3 3 2 1 2 3 2 2 1 2 3 5 6 2 0 3 5 2 2 2 4 8 10 10 9 8 6 7 11 14 14 14 14 14 16 18 19 23 27 30 32 31 28 27 28 28 31 35 36 35 34 31 29 29 29 29 31 31 33 34 35 35 35 35 35 36 35 35 34 33 33 33 32 30 28 27 27 26 26 25 24
2 3 2 3 3 3 3 2 3 5 5 4 1 3 2 1 4 5 3 1 2 2 1 3 3 3 5 9 9 8 7 8 9 11 13 13 13 14 14 15 17 20 24 27 29 32 32 28 26 27 28 31 34 34 35 35 32 30 30 29 30 32 33 34 35 36 35 36 36 36 35 35 35 34 34 34 33 31 31 30 29 29 28 26 25 24
3 5 5 2 2 3 5 5 4 4 5 4 3 3 1 2 2 5 6 4 3 2 0 2 2 3 1 4 8 8 7 9 11 13 14 14 14 14 14 15 18 22 24 27 30 32 31 30 28 27 28 31 34 34 34 35 34 32 30 30 32 34 35 36 37 36 36 36 36 36 35 35 35 35 34 34 33 32 32 32 31 31 30 28 26 25
1 2 4 3 1 2 2 1 0 1 3 5 4 2 3 5 4 4 7 6 4 4 2 2 3 4 4 2 4 6 5 8 11 11 12 13 12 12 13 14 18 23 25 26 28 30 30 29 29 29 28 29 33 34 34 34 35 34 32 32 35 37 37 38 38 37 37 37 37 36 36 35 35 35 35 34 33 33 33 33 32 31 31 30 28 25
3 3 4 4 3 3 1 2 1 2 3 4 4 4 5 6 5 4 6 5 3 4 4 3 3 5 5 4 5 6 5 7 9 8 8 10 11 12 13 13 16 22 26 27 29 31 30 29 28 28 28 29 31 32 33 33 34 34 34 35 36 38 38 39 38 37 36 37 36 36 36 36 35 35 35 34 33 32 31 30 30 30 31 31 29 26
4 4 4 4 3 2 2 5 4 1 4 5 2 2 3 5 6 5 4 4 4 5 4 3 3 5 5 4 6 8 7 7 9 10 9 9 10 11 12 13 17 22 25 28 31 31 29 28 28 28 29 30 30 32 32 32 32 32 34 36 38 39 39 39 38 37 36 36 36 35 36 36 35 35 34 34 33 30 29 29 29 30 31 30 28 26
3 3 2 3 4 2 0 1 1 3 6 6 4 3 2 2 5 6 6 5 6 6 6 5 4 2 4 6 6 8 8 6 7 10 10 9 9 10 11 14 19 23 25 28 31 31 29 29 30 30 30 30 31 32 32 31 31 33 35 38 39 40 39 38 37 37 36 35 35 35 35 35 35 34 34 33 32 29 27 28 27 27 27 27 25 24
3 3 1 4 5 2 2 3 3 4 2 1 1 2 1 1 5 7 6 6 7 5 5 6 6 5 4 5 6 8 9 7 7 10 10 9 10 10 12 16 19 21 25 28 30 29 29 30 31 32 31 30 31 33 33 32 32 34 37 39 40 41 40 38 37 35 35 35 35 35 35 34 34 33 33 33 31 28 26 25 25 24 24 23 22 21
2 1 2 5 5 4 6 5 4 5 3 3 3 1 2 2 6 7 4 3 4 4 5 5 5 5 5 3 2 7 9 8 8 10 10 8 10 14 18 21 22 22 25 28 28 26 27 29 30 31 31 30 31 33 33 33 34 35 38 41 41 41 41 39 37 34 34 34 35 35 35 34 33 32 32 32 31 29 28 26 24 22 21 20 19 17
Wind_Direction
156 164 199 207 211 209 207 196 203 247 283 234 191 195 199 190 222 204 200 216 159 151 220 159 143 159 164 175 161 152 153 137 142 148 152 158 156 158 157 156 154 145 131 128 137 130 121 132 136 143 149 150 149 152 158 159 160 164 167 169 168 168 170 170 166 165 165 160 151 145 138 130 125 123 121 118 117 115 113 114 114 112 112 111 108 104
158 199 217 212 207 206 200 173 181 222 260 264 234 220 219 200 217 203 194 227 170 157 209 125 134 160 163 160 156 152 154 153 154 154 158 160 158 163 156 153 148 135 122 122 131 120 109 122 131 143 152 153 150 150 156 157 159 164 167 169 169 167 169 171 171 170 167 162 154 143 135 130 126 125 124 120 119 118 116 115 114 113 113 112 110 109
197 221 219 203 180 183 205 181 182 212 237 258 243 216 233 211 203 218 212 216 172 158 160 125 131 147 145 129 136 154 147 135 141 151 159 159 158 161 157 153 145 135 127 129 138 127 114 122 133 143 151 155 152 149 150 154 158 161 163 167 170 170 168 169 171 170 165 159 151 141 134 131 127 125 125 124 123 124 120 115 111 110 108 109 109 108
205 226 200 155 145 189 223 201 188 213 231 244 234 200 238 221 177 216 232 204 116 102 131 123 112 102 92 92 118 149 126 106 118 136 148 158 158 157 158 153 146 142 132 130 143 137 124 129 136 142 148 152 150 147 148 150 154 158 163 166 167 168 167 166 166 165 161 151 142 135 131 131 128 125 126 124 121 122 119 113 108 104 102 104 104 105
214 190 142 141 168 193 218 211 193 207 228 237 227 200 220 223 200 204 179 126 55 67 118 112 86 38 147 148 163 137 122 121 128 136 142 155 152 147 152 151 149 149 140 136 149 166 151 145 146 146 150 154 151 151 153 155 158 159 162 164 163 164 165 165 162 157 154 147 139 133 129 129 127 126 127 123 117 116 113 107 102 98 97 102 104 104
241 179 148 166 187 191 206 213 200 200 218 243 232 204 207 225 224 178 132 111 66 79 153 127 109 278 221 173 184 155 143 144 138 147 156 160 160 160 161 160 158 152 149 150 158 175 176 159 153 150 152 157 155 154 158 162 165 164 163 164 162 162 163 164 162 156 152 147 143 140 138 136 132 127 127 125 121 117 112 107 104 101 101 105 106 102
222 199 169 180 192 191 202 214 208 196 204 242 213 176 202 227 227 156 138 135 125 194 215 190 163 188 218 198 189 169 161 160 153 158 165 166 173 180 173 165 158 151 158 166 165 169 173 165 158 153 154 158 156 157 160 163 167 166 163 164 165 164 163 161 159 156 152 149 147 147 147 146 141 132 127 128 124 119 116 113 110 106 104 105 104 100
179 193 186 185 190 196 202 210 207 191 200 235 177 151 196 222 216 176 163 199 189 152 212 202 147 127 188 197 181 169 166 169 165 165 169 173 183 186 174 165 164 167 173 173 167 166 167 165 161 156 156 160 159 159 161 162 163 166 164 164 165 163 161 158 157 156 155 154 153 154 151 146 143 136 131 130 126 122 120 114 109 106 104 102 100 99
173 194 194 184 191 205 207 206 200 189 208 243 193 171 199 215 204 166 176 233 213 104 187 219 143 118 188 185 167 169 174 180 174 172 175 178 185 184 172 172 175 179 180 169 168 170 164 159 160 160 159 159 159 158 161 162 163 167 165 160 157 154 154 156 157 159 159 160 160 159 153 143 139 138 135 133 128 125 118 108 105 102 101 100 98 97
177 198 195 185 197 208 200 198 196 192 211 257 235 221 230 228 198 155 185 226 181 137 201 212 189 140 164 189 172 169 184 192 181 177 181 180 185 185 175 179 180 178 179 170 167 164 156 155 157 159 156 154 155 155 158 161 162 165 161 154 149 147 149 152 155 160 163 164 165 162 157 148 144 142 139 134 127 122 113 103 100 98 98 98 97 98
196 190 197 198 202 197 177 187 203 197 196 276 264 239 252 267 63 134 201 160 135 218 221 204 195 165 150 196 187 182 190 184 173 176 181 180 187 188 182 183 182 178 176 168 161 151 145 147 150 151 151 150 149 150 154 158 158 157 153 149 146 146 150 150 153 159 162 166 168 167 165 157 153 149 142 134 126 119 110 101 98 97 97 98 99 101
224 193 201 210 196 175 161 193 211 203 191 232 259 220 226 291 9 35 274 120 179 237 238 202 195 186 182 198 198 206 199 175 173 180 179 180 187 186 182 183 185 181 171 164 157 145 140 142 144 145 146 145 144 146 151 154 150 147 146 145 143 145 151 154 157 159 161 165 168 168 166 161 157 152 144 134 127 119 110 104 101 100 99 100 102 103
233 214 203 197 188 174 175 195 204 205 197 210 236 198 167 224 244 219 223 212 213 237 243 190 176 201 230 204 196 201 198 183 186 186 178 179 183 180 177 180 184 177 164 159 152 146 146 146 143 142 144 143 143 146 149 148 145 142 142 142 139 139 145 151 155 158 160 164 167 166 163 159 155 150 141 133 128 121 113 110 108 104 103 104 105 105
218 244 211 190 194 185 184 187 191 204 197 201 213 184 167 172 174 213 222 230 224 239 248 179 163 200 248 211 197 195 193 190 190 188 179 178 177 173 173 175 177 170 161 157 150 149 152 150 145 143 145 145 145 148 148 145 144 142 141 142 139 136 141 147 150 153 154 156 162 164 161 157 153 145 138 134 129 122 117 116 114 110 108 108 108 108
182 231 215 193 188 185 191 193 187 186 189 206 203 145 158 171 161 204 204 185 210 235 263 163 159 193 195 239 223 196 189 184 177 175 171 170 168 163 166 171 171 166 161 156 152 151 153 152 148 146 149 149 147 149 147 145 145 144 144 145 143 140 142 146 147 149 149 148 153 157 156 153 149 143 138 134 130 126 123 123 121 116 111 110 111 112
186 227 223 199 187 180 194 198 178 165 185 209 168 133 187 186 157 196 190 180 186 175 168 155 157 211 178 309 301 155 147 153 154 151 155 159 158 158 166 174 169 165 162 159 155 152 153 153 148 149 153 151 148 148 148 147 147 146 146 146 146 145 146 148 148 149 148 147 148 151 150 148 146 142 138 134 132 129 128 129 127 121 114 113 114 115
181 242 229 192 197 197 193 190 177 175 186 182 160 184 212 173 142 142 195 208 103 131 208 161 104 325 47 352 355 121 132 146 150 152 160 162 160 165 174 177 170 166 163 160 159 155 155 154 151 153 156 151 149 150 149 150 150 150 149 148 147 147 149 151 152 152 151 149 147 147 147 146 144 142 138 135 133 130 128 129 127 122 117 115 115 116
160 240 260 194 199 216 201 189 194 189 166 152 187 202 193 160 144 105 158 281 57 140 244 91 137 178 130 5 342 121 135 156 159 158 162 162 166 174 178 176 172 167 161 158 158 156 154 155 154 156 157 154 152 152 151 152 153 154 155 155 153 151 152 154 154 153 152 151 149 147 147 147 145 141 138 135 133 131 129 128 126 123 120 118 117 117
142 182 278 211 193 214 208 186 205 216 176 160 182 180 159 169 214 166 155 188 136 167 252 51 151 191 170 163 168 155 160 167 164 162 165 171 177 179 176 175 169 161 159 158 160 160 157 158 159 158 157 155 153 154 154 154 155 156 158 160 159 157 156 155 154 153 153 153 150 148 148 148 146 142 139 136 134 133 131 129 127 126 124 124 123 121
113 143 256 238 187 183 181 175 199 219 208 189 160 169 171 164 177 186 166 159 165 186 185 106 128 248 218 178 169 173 176 169 165 171 177 180 182 178 174 172 166 161 163 163 164 165 160 160 162 160 156 155 155 156 155 155 156 158 160 161 160 158 156 156 156 156 154 154 153 150 149 150 148 146 142 138 137 135 133 133 133 131 129 129 128 126
358 156 231 273 179 162 184 208 197 192 196 195 177 192 200 162 152 170 176 149 139 161 169 141 200 262 244 186 174 176 177 173 173 176 181 182 180 177 174 169 165 163 163 164 164 162 159 160 160 159 156 155 156 156 156 157 158 159 162 164 163 161 158 157 158 160 159 158 158 157 155 153 151 147 143 140 140 137 136 137 136 134 133 133 132 132
204 209 195 239 167 174 214 223 183 170 175 172 171 197 185 160 141 139 211 242 124 145 168 150 191 259 244 186 181 177 176 179 179 175 177 179 176 174 173 169 164 162 161 163 162 159 160 159 157 157 156 155 156 156 156 157 158 160 164 165 165 164 162 162 163 162 160 156 154 154 153 151 148 144 143 143 142 139 138 138 137 138 138 135 135 137
177 148 142 187 208 194 216 220 157 158 159 150 166 192 162 145 129 130 180 235 172 150 161 128 177 262 254 188 184 181 179 180 178 174 172 172 172 168 166 165 161 159 160 159 158 159 160 159 157 156 155 155 156 156 156 157 158 162 165 166 166 165 166 169 167 162 159 154 150 150 150 148 147 147 147 146 145 142 141 139 140 143 142 137 138 139
192 179 163 216 296 292 284 323 117 142 134 130 206 196 151 165 160 150 166 184 184 191 140 107 194 262 278 203 184 180 176 173 172 171 164 162 165 163 161 162 159 157 157 156 157 159 157 157 157 156 155 155 156 157 157 158 159 162 165 167 167 167 167 167 163 161 162 161 159 159 157 154 153 152 151 149 147 145 143 142 142 143 142 139 139 138
204 206 143 131 46 19 324 336 1 124 131 159 218 216 188 170 149 153 134 105 197 217 157 139 200 250 285 202 168 157 151 159 165 164 162 160 161 161 161 162 159 156 156 157 158 159 159 159 159 158 157 157 158 159 159 160 161 163 166 168 169 167 165 164 165 168 171 167 164 162 159 156 155 154 152 150 147 146 146 147 145 144 143 142 139 137
161 192 122 126 150 162 180 212 221 198 174 188 185 190 223 178 142 159 150 109 226 236 152 149 197 251 309 140 155 155 148 155 163 165 167 166 162 162 162 160 160 159 161 163 162 163 163 161 161 160 158 159 160 161 161 161 162 163 165 169 169 167 166 169 174 176 173 168 163 160 158 156 156 156 154 151 148 147 149 150 148 146 145 145 143 140
111 221 117 128 160 178 185 214 212 164 162 201 181 183 242 212 130 114 114 155 196 186 181 213 183 151 120 148 160 169 162 161 165 166 168 166 163 164 162 161 163 163 165 165 164 164 164 163 165 162 159 158 161 163 163 162 162 163 165 167 169 170 171 173 173 171 169 167 163 161 160 159 160 159 157 154 152 151 151 151 150 147 145 146 145 142
119 254 239 128 162 193 194 227 237 142 142 171 177 193 244 212 128 111 135 189 165 132 232 256 183 146 163 170 167 172 170 168 169 169 168 166 165 164 161 160 161 161 163 166 166 167 167 167 169 166 161 159 161 164 165 163 164 166 166 167 169 171 172 171 168 166 165 165 164 163 162 163 163 162 159 157 155 154 152 150 149 146 145 145 143 140
124 221 237 152 171 206 182 281 337 116 147 155 174 201 225 185 153 151 182 187 144 150 219 226 179 165 174 173 170 174 176 176 174 169 164 160 158 158 159 161 163 164 166 170 172 172 171 170 170 169 164 161 161 164 165 164 165 165 165 167 170 171 172 172 170 167 166 165 165 165 164 163 163 162 161 158 156 154 153 151 149 146 145 143 138 135
113 234 283 88 84 343 17 22 7 28 160 166 182 208 210 187 174 176 189 172 150 193 214 169 157 185 186 177 176 176 175 170 161 151 149 154 158 160 163 165 168 170 171 174 175 174 173 171 170 169 165 162 162 163 165 165 165 165 167 169 171 173 173 173 172 170 168 167 167 167 166 165 164 162 162 161 158 157 156 153 149 146 142 137 134 133
91 250 304 44 61 341 335 333 5 19 129 192 217 230 211 184 178 184 182 145 129 219 262 127 137 187 215 168 150 138 134 135 141 151 158 163 163 163 166 169 171 173 174 175 174 173 173 171 171 170 168 166 165 165 166 168 168 169 170 171 173 174 174 173 172 171 169 168 168 168 168 166 165 164 163 162 160 160 158 155 150 145 139 134 133 134
65 56 328 41 66 316 308 296 357 19 42 201 246 245 224 194 183 195 206 175 149 139 83 96 142 180 171 127 114 113 132 145 156 161 162 165 166 165 168 171 173 175 176 176 174 174 175 174 174 175 172 169 169 169 169 169 168 170 172 173 175 175 174 173 172 170 170 169 169 170 169 168 167 165 163 160 158 158 159 155 150 145 140 136 134 134
95 95 3 57 91 287 299 356 50 45 49 305 256 232 214 212 198 178 211 206 165 140 130 156 194 190 152 139 139 146 153 159 168 168 162 165 170 173 174 174 175 178 177 176 176 176 177 177 177 177 175 173 173 173 172 170 170 173 175 175 174 174 173 173 172 171 171 170 171 172 171 170 168 165 162 160 157 156 158 156 151 146 143 137 132 131
112 114 149 129 114 268 295 360 51 58 110 241 246 200 184 210 203 177 191 205 182 151 140 165 187 160 148 151 155 163 171 174 176 175 169 166 169 174 179 178 177 177 176 176 177 177 177 177 177 177 176 175 174 174 173 172 172 173 174 173 172 172 173 172 171 172 171 171 173 173 173 171 169 167 166 163 160 158 158 156 152 149 145 137 130 127
113 117 163 208 113 198 308 29 55 78 224 241 272 255 206 202 183 162 159 243 196 156 123 122 143 162 166 168 165 169 181 181 172 170 172 172 171 172 175 180 178 174 176 177 178 178 177 175 174 175 175 174 171 171 171 170 169 168 169 171 171 172 172 171 171 172 172 173 174 174 174 172 170 169 168 166 164 162 160 158 155 152 148 139 131 126
129 130 152 108 108 155 46 71 135 233 258 284 301 287 235 113 132 136 85 345 291 179 149 147 164 175 176 178 174 171 174 168 159 168 177 176 175 172 172 176 177 176 179 179 177 176 176 176 174 172 174 172 168 168 170 170 169 169 169 171 171 171 171 171 170 172 173 174 175 175 174 173 171 170 168 167 166 164 163 161 159 156 152 144 135 128
129 126 99 75 93 131 117 134 225 292 316 310 298 266 164 146 171 157 141 320 300 264 190 163 165 176 178 174 160 134 120 117 133 188 198 186 183 179 175 175 177 178 179 177 177 176 175 175 173 171 172 171 167 169 170 169 169 169 167 168 170 171 171 171 172 174 175 176 177 176 176 174 172 170 168 168 168 167 166 165 162 160 157 153 148 142
111 124 133 118 72 104 108 88 9 36 303 261 251 264 264 206 185 144 113 347 299 303 262 164 162 172 170 149 123 114 110 117 161 212 212 192 186 181 178 177 175 173 171 169 171 172 172 173 172 172 172 170 168 169 170 168 168 167 166 168 170 171 172 173 174 176 177 178 179 178 178 177 175 172 171 171 170 168 168 166 164 164 163 160 157 154
81 92 109 102 44 59 99 104 136 168 242 246 244 267 277 234 177 111 91 289 281 299 306 158 165 178 168 146 139 136 129 144 197 218 199 184 183 179 173 171 168 168 169 169 169 169 170 171 171 171 172 171 169 169 169 169 168 167 167 171 172 173 174 175 177 178 179 180 179 179 179 179 177 175 173 172 171 170 170 168 166 166 166 166 164 162
80 79 89 99 93 53 94 110 226 220 245 249 248 262 256 204 95 87 120 247 263 280 287 176 172 189 175 154 151 150 154 174 203 215 193 175 176 176 169 167 166 166 167 169 170 169 168 170 170 171 173 172 170 169 169 169 168 168 170 172 173 174 177 179 180 180 180 180 179 180 180 180 179 177 174 173 173 173 172 170 168 169 169 169 169 167
84 68 87 122 135 118 116 159 264 261 254 252 245 241 232 125 73 92 197 227 245 266 267 219 188 182 164 159 163 170 183 193 198 194 171 159 162 170 170 169 168 167 166 168 170 169 167 170 172 172 173 173 171 169 169 168 168 170 171 173 175 178 180 180 180 180 180 180 179 180 181 181 180 178 177 176 174 172 171 171 170 171 172 172 172 172
133 88 73 131 146 156 145 152 270 268 258 254 232 228 188 104 112 212 220 213 222 252 268 254 224 184 156 165 184 192 193 182 129 135 147 155 162 164 162 163 164 165 166 166 167 168 167 171 173 172 171 173 171 170 170 169 169 171 171 174 178 181 180 179 179 180 180 179 179 179 180 180 180 179 178 176 173 171 171 172 173 175 175 175 175 175
167 144 173 190 168 136 98 83 91 224 254 323 347 330 61 115 192 217 228 172 231 247 297 11 288 214 164 170 196 203 188 157 131 141 152 159 162 159 158 163 164 163 164 163 166 168 167 168 171 170 168 170 171 171 171 170 170 171 173 177 180 179 179 179 179 179 178 177 177 179 180 180 180 179 177 176 174 173 173 173 175 176 174 172 171 172
170 153 189 219 185 126 120 176 203 215 254 305 20 164 194 227 193 172 134 59 290 263 63 44 337 264 185 174 183 187 177 160 149 150 152 156 161 161 161 164 163 162 163 164 166 168 166 166 168 167 165 168 171 172 173 172 171 172 175 178 178 177 177 178 178 177 176 175 177 178 179 179 179 179 178 177 177 176 175 176 179 179 177 175 175 176
200 180 167 173 183 153 165 197 222 242 273 321 50 130 165 7 80 129 119 80 17 333 174 95 49 4 355 172 165 158 162 166 157 154 157 161 165 163 160 162 163 161 162 163 165 167 167 166 165 163 163 167 170 172 174 174 173 173 175 176 176 176 177 176 175 175 174 174 177 178 178 178 179 180 180 179 179 179 178 180 183 183 183 183 184 185
234 160 129 114 121 117 111 130 347 349 332 351 14 36 70 64 56 71 79 65 14 348 19 92 106 88 66 96 142 137 147 158 153 153 157 156 156 155 153 156 159 159 160 162 164 165 165 164 163 162 163 167 171 172 174 176 176 175 175 175 176 177 176 174 173 173 173 175 177 177 176 177 178 180 181 181 182 183 183 184 186 187 189 189 190 192
337 49 83 94 103 98 90 259 218 82 34 8 10 18 42 52 44 53 73 69 22 23 50 68 94 97 90 95 113 114 119 133 135 136 142 144 148 152 153 155 159 162 163 164 164 163 162 161 162 162 163 168 172 173 174 177 178 177 175 175 175 176 175 173 172 171 172 174 176 175 176 176 177 179 181 182 184 186 187 190 192 191 190 191 193 197
327 29 72 88 81 101 208 242 248 331 348 346 18 61 55 51 41 38 56 67 49 43 46 56 88 100 101 104 113 117 121 132 139 141 144 149 153 156 159 159 160 162 163 163 163 162 161 161 163 164 166 169 172 174 175 176 177 177 175 174 175 175 173 172 172 172 172 174 174 174 175 177 178 179 180 182 186 188 189 191 192 192 192 194 197 199
318 7 75 111 79 60 132 218 67 34 358 353 26 77 92 78 54 35 26 42 50 43 35 32 31 72 125 135 132 126 128 140 149 146 146 151 156 158 159 157 158 160 161 163 165 164 163 164 165 166 168 170 172 173 175 175 176 177 176 174 175 174 172 171 171 172 172 172 173 173 175 177 178 179 180 183 186 189 189 190 192 194 197 200 201 201
30 20 51 108 100 123 210 199 158 130 94 330 29 68 27 53 69 55 40 46 54 54 56 51 32 30 88 133 144 136 135 146 154 148 148 155 159 157 153 152 156 159 162 164 166 166 165 166 168 167 169 171 171 172 174 175 176 177 176 175 176 175 172 170 170 170 170 171 172 173 175 176 177 179 181 184 186 187 187 191 195 198 200 204 208 212
107 134 158 139 148 201 221 216 187 139 138 231 250 12 8 57 76 64 44 51 68 70 72 73 63 48 41 37 122 147 147 149 152 151 150 153 156 154 154 157 159 161 165 167 167 166 165 166 167 168 169 170 171 171 173 176 177 177 177 177 177 176 174 171 169 169 170 172 173 174 175 176 177 179 182 185 186 187 188 191 195 200 206 212 216 217
Height
756 766 768 762 756 753 755 758 761 761 759 760 761 762 760 762 762 755 751 744 742 755 760 764 781 788 787 788 786 787 789 790 793 794 796 797 798 798 799 799 799 798 798 798 800 802 803 803 804 806 808 808 808 807 808 810 811 814 815 818 820 821 822 823 825 828 830 832 833 834 835 836 837 839 839 840 841 841 841 842 842 841 841 840 839 838
757 765 758 748 749 751 754 756 757 759 759 760 762 762 761 761 759 752 749 745 743 753 764 771 784 789 788 790 790 788 791 792 792 793 795 796 798 798 797 799 799 798 799 799 802 803 804 805 806 808 810 809 809 809 810 811 812 814 816 818 820 821 823 824 826 828 830 832 833 834 835 836 838 840 840 841 842 842 842 843 843 843 843 842 841 841
760 755 745 745 750 752 753 753 755 758 759 761 763 764 764 759 756 753 747 745 745 753 771 781 786 792 792 790 793 792 791 793 793 793 794 795 796 797 798 798 799 799 800 801 803 804 805 807 808 810 811 811 810 810 811 811 813 815 817 819 821 822 823 825 826 828 830 833 834 835 836 837 839 841 842 842 843 843 843 843 844 844 844 843 843 843
759 748 742 747 750 751 754 753 754 758 759 761 763 766 766 757 755 758 751 748 751 757 774 785 789 795 795 792 792 792 791 792 793 794 794 794 794 795 796 797 798 799 801 803 805 805 806 808 809 810 812 812 812 812 812 813 814 816 818 820 821 823 824 825 827 828 831 833 835 836 837 838 839 842 843 843 844 844 843 844 844 844 844 845 845 845
751 742 740 745 748 751 755 753 754 760 761 760 760 764 764 756 753 754 752 753 761 770 773 782 797 801 796 796 795 791 791 792 793 795 796 795 795 795 796 796 797 797 797 800 803 804 805 806 808 809 810 811 812 812 813 813 815 817 818 820 821 823 824 825 827 829 831 833 835 836 838 840 841 842 843 844 845 845 844 844 844 845 845 846 846 846
748 739 737 743 745 747 752 754 753 756 762 761 756 755 757 755 752 753 754 757 773 788 777 774 799 808 798 797 797 793 793 794 794 795 795 796 795 795 795 794 794 794 793 793 794 798 801 802 804 806 807 809 811 812 813 814 815 817 818 819 821 823 824 826 827 829 831 832 834 835 837 839 840 842 843 844 845 845 845 845 845 845 846 847 846 845
745 738 736 740 744 746 750 752 748 749 762 764 751 746 750 752 754 756 756 762 777 786 772 764 786 805 802 797 795 793 794 795 795 795 794 794 794 793 793 793 793 794 794 792 790 793 798 801 802 804 806 808 810 811 812 814 815 817 818 819 821 822 824 826 827 829 831 832 833 835 836 837 838 840 843 845 845 845 845 845 845 845 846 846 845 844
737 738 738 738 742 746 749 748 742 743 756 758 743 741 748 750 755 756 755 761 767 768 768 766 773 794 803 796 791 792 794 797 795 794 794 792 791 791 792 793 793 793 793 792 791 792 796 799 801 803 805 807 809 810 812 813 815 817 818 820 821 822 824 826 828 829 831 832 833 834 836 837 838 840 842 844 844 844 844 844 844 844 844 844 843 842
731 737 738 737 743 745 743 740 736 739 749 747 738 740 744 746 751 753 753 757 758 763 778 777 771 788 803 794 788 791 794 796 794 791 791 789 788 789 791 793 792 792 792 791 792 792 793 796 799 802 805 807 808 809 811 813 815 817 819 820 822 823 824 826 828 829 831 832 833 834 835 837 839 840 842 843 843 843 843 842 843 843 842 842 842 841
728 730 730 734 740 739 736 734 731 737 743 738 735 741 742 743 746 749 753 756 759 770 782 778 769 782 801 796 788 792 793 791 790 787 787 787 786 787 789 790 791 792 792 791 791 793 793 795 798 802 804 806 808 809 811 813 816 818 819 821 822 823 825 827 828 829 831 832 833 834 835 836 838 840 841 842 842 842 841 841 841 842 842 841 841 841
724 722 724 726 728 728 730 730 729 732 737 735 735 742 745 746 746 749 752 754 768 779 773 767 763 769 791 797 785 780 777 774 780 784 784 785 785 786 787 788 789 790 790 791 792 794 795 796 798 801 804 806 807 809 811 814 816 817 819 821 822 824 825 827 828 829 831 833 833 834 835 836 837 838 840 840 841 841 839 839 841 841 842 841 842 842
725 724 722 718 717 721 727 729 728 728 733 737 739 744 752 755 753 757 759 760 775 780 760 755 759 760 778 789 777 766 761 761 769 773 777 780 780 783 785 786 787 788 789 790 792 793 795 796 798 801 803 805 807 809 812 814 816 817 819 821 822 824 826 827 829 830 831 833 834 835 835 836 837 838 839 839 840 840 839 840 841 842 842 842 843 844
731 724 718 716 715 716 725 734 734 732 734 741 743 749 761 767 768 772 773 770 773 766 747 744 756 762 767 768 761 759 759 759 758 758 763 769 773 778 782 784 785 786 788 790 791 793 795 796 798 800 802 804 806 809 812 814 815 817 819 821 822 825 826 827 829 830 832 833 834 835 836 837 838 838 839 839 839 839 839 841 842 843 844 844 844 845
738 727 718 720 719 712 719 733 739 737 735 740 744 752 764 771 779 784 780 775 770 757 743 740 751 762 760 751 748 749 749 749 750 752 757 761 767 774 778 781 783 784 786 788 789 791 794 796 797 800 802 804 806 809 812 813 815 818 820 822 823 825 827 828 829 831 832 833 834 835 836 837 838 838 839 839 839 839 840 842 844 845 845 845 846 847
742 738 722 717 717 710 712 720 726 729 732 734 734 743 755 758 766 775 772 769 764 755 749 747 753 761 757 748 743 739 741 745 749 755 760 764 769 773 777 780 781 783 785 786 788 791 794 796 797 799 802 804 807 809 811 813 815 818 820 822 823 824 826 828 830 831 832 834 835 835 836 837 838 838 838 839 840 840 842 843 845 846 846 847 847 848
737 734 713 706 708 706 711 713 712 723 733 731 728 739 749 744 744 755 759 756 751 750 754 756 761 761 752 747 741 738 744 751 754 760 765 770 774 776 778 779 779 781 783 785 788 790 793 795 797 800 802 804 807 809 811 813 815 818 820 822 823 824 826 828 830 832 833 834 835 836 837 837 838 838 839 840 841 841 843 844 845 846 847 848 849 850
733 728 706 703 707 702 706 708 706 718 728 728 733 739 737 730 732 744 754 753 749 752 756 760 768 765 756 753 749 745 751 757 759 763 767 771 775 776 777 777 778 779 781 784 787 789 793 795 797 800 802 804 806 808 811 813 816 818 820 822 823 825 827 829 830 832 833 834 835 836 837 838 838 838 839 840 841 842 843 845 846 847 848 849 850 851
723 726 708 703 710 703 698 703 704 706 711 722 733 730 725 729 731 736 749 758 758 758 757 760 767 768 764 764 760 756 760 763 763 765 768 772 774 775 775 775 775 777 780 783 787 789 792 794 796 800 802 804 806 808 811 814 817 819 821 822 824 826 827 829 831 832 833 834 835 837 838 838 839 839 840 841 842 843 844 846 847 848 849 850 851 852
713 723 713 700 706 704 696 704 713 707 702 711 717 714 720 738 742 740 747 758 763 764 762 763 767 764 762 764 764 762 763 763 764 765 768 770 771 771 772 772 774 777 780 783 786 789 791 793 796 798 801 804 806 809 812 814 817 819 821 823 824 826 828 830 831 832 834 835 836 837 838 839 839 840 840 841 842 843 845 847 848 849 850 851 852 853
711 720 717 701 698 702 701 710 721 717 707 705 709 710 714 724 732 734 740 747 754 760 762 767 773 763 752 752 754 755 755 756 759 762 762 763 764 765 767 769 772 775 778 781 784 787 788 791 794 797 800 803 806 809 811 814 817 819 821 823 825 827 828 830 832 833 835 836 837 838 839 839 839 840 841 842 843 845 846 848 850 850 851 852 853 854
711 715 718 707 699 705 710 710 712 715 713 712 717 720 717 716 720 727 734 736 740 751 758 769 776 758 737 736 740 742 745 746 747 750 754 756 759 761 763 766 769 773 776 780 782 785 788 791 794 797 800 803 806 809 811 813 816 819 821 823 824 826 828 830 832 834 835 836 837 838 838 839 839 840 841 842 844 846 848 850 851 852 852 853 854 855
712 713 714 713 710 711 707 698 697 703 707 710 714 717 716 717 721 733 742 734 727 738 747 756 763 746 725 726 730 732 735 736 736 740 746 751 755 758 761 763 767 771 774 778 781 784 788 791 794 797 800 802 805 808 811 813 815 818 820 822 824 826 828 830 832 834 835 836 837 837 838 838 839 840 842 844 845 847 849 850 852 852 853 854 855 856
707 711 712 713 711 707 699 692 693 695 698 704 707 707 711 715 719 731 741 734 725 732 736 739 747 737 721 720 723 725 728 729 731 736 741 748 752 756 760 763 766 770 773 777 781 784 787 790 793 797 799 802 805 808 811 813 815 817 819 821 823 826 828 830 832 833 835 836 837 837 838 839 840 842 843 845 847 848 850 851 852 853 854 854 856 856
704 710 712 712 708 701 695 692 692 692 696 705 707 704 707 712 713 714 722 726 725 730 734 740 747 737 721 719 720 722 726 729 732 736 740 748 752 756 760 763 767 771 774 778 781 784 787 790 793 796 799 801 805 808 810 812 815 817 819 821 823 826 828 830 832 833 835 836 837 838 839 840 841 843 845 846 848 849 851 852 852 853 854 855 855 856
702 709 710 715 719 715 711 707 704 701 701 706 707 703 703 707 708 708 714 723 728 730 730 737 744 736 723 721 723 724 730 734 737 739 741 746 751 756 759 762 767 771 775 778 781 784 787 789 792 795 798 801 805 807 810 812 814 816 818 820 822 825 827 829 831 834 835 836 838 839 840 841 842 844 846 847 848 850 851 852 852 853 854 854 855 856
698 705 705 713 725 727 726 722 715 710 706 705 704 702 701 704 707 711 718 726 732 736 731 730 736 735 727 725 727 728 733 738 741 742 744 746 749 753 757 761 766 770 773 777 780 783 786 788 791 794 797 801 804 807 810 811 813 816 818 820 822 824 827 829 831 833 835 836 838 839 841 842 843 845 847 848 849 850 851 852 852 853 854 854 855 856
695 701 700 704 712 715 716 711 704 702 706 707 705 703 704 706 708 712 721 725 726 730 730 726 728 732 732 731 731 732 733 736 740 742 745 749 751 753 756 760 764 768 772 775 778 782 785 788 790 792 796 800 803 807 809 810 812 815 817 820 822 825 827 829 831 833 834 836 838 840 841 842 844 846 847 848 849 851 852 852 853 853 854 855 855 856
698 702 701 701 703 704 704 701 696 698 703 706 705 704 706 709 709 711 718 720 721 727 730 725 723 727 732 732 730 731 733 735 738 740 742 747 751 754 757 760 764 769 772 775 778 781 784 787 789 791 794 798 802 806 809 810 812 814 816 819 822 825 827 829 830 832 834 836 838 840 842 843 845 847 848 849 850 851 852 853 853 854 854 856 856 857
700 703 702 701 702 702 700 698 696 697 699 699 701 703 704 709 711 709 710 713 718 721 719 718 722 725 726 727 725 725 727 729 732 735 738 744 749 753 758 762 765 768 772 774 777 779 782 785 787 790 793 796 800 804 807 809 812 814 816 819 821 824 826 828 830 832 834 836 838 840 842 844 846 847 849 850 850 851 853 853 854 854 855 856 857 858
699 704 703 700 701 701 699 697 696 698 700 699 698 699 702 708 710 706 705 709 713 714 710 713 723 725 719 718 717 715 718 722 728 734 739 745 750 753 757 761 764 766 769 771 774 777 780 783 785 788 792 794 797 801 805 808 810 813 815 818 821 823 825 827 829 832 834 836 838 841 843 845 846 848 849 850 851 852 853 854 854 855 856 857 858 858
696 707 706 700 703 705 700 698 697 698 703 704 700 699 701 707 713 711 708 709 711 715 718 719 723 723 717 713 714 716 720 725 731 736 741 744 747 752 756 760 762 765 768 770 773 776 779 781 785 787 789 793 795 798 802 805 808 811 814 817 820 822 824 826 829 831 834 836 839 841 843 845 846 848 849 850 851 852 853 854 855 856 857 857 858 859
696 709 709 704 711 713 705 703 701 697 702 707 705 702 702 706 711 712 709 705 704 712 727 730 723 719 717 716 718 721 724 728 733 736 740 744 746 750 754 757 760 763 766 769 771 775 777 779 782 785 787 790 793 796 800 803 806 810 813 816 819 821 824 826 828 831 834 836 839 841 843 845 846 848 850 850 851 852 853 855 855 856 857 858 859 860
700 709 712 713 718 718 711 707 703 701 711 717 710 705 705 704 705 708 705 701 699 707 722 727 716 710 714 716 720 725 726 730 733 734 737 743 746 748 750 752 756 759 761 765 768 771 774 776 779 782 786 789 791 793 796 799 803 807 810 814 817 820 822 825 827 830 833 836 838 840 843 845 846 848 850 851 851 852 854 855 856 857 858 859 860 861
704 708 715 717 718 720 716 706 706 718 728 721 707 703 705 701 700 703 703 700 700 702 708 712 708 708 714 715 716 722 724 723 726 727 729 734 740 746 749 750 753 756 758 762 765 768 771 774 778 782 785 788 790 792 796 798 801 805 809 813 816 819 821 824 826 830 833 835 838 840 842 844 846 848 849 851 852 853 854 856 857 858 859 860 861 862
705 708 714 716 715 719 717 712 721 734 728 711 701 701 702 700 696 697 699 700 702 701 698 702 707 709 712 710 708 712 714 714 719 724 727 729 732 738 745 749 751 755 758 761 764 767 770 773 777 781 784 787 790 792 796 800 802 805 809 812 815 818 820 823 826 829 832 835 837 840 842 844 846 847 849 851 852 853 855 856 857 859 860 861 862 863
702 707 711 714 718 721 720 723 732 731 716 706 703 700 699 701 698 697 702 703 703 701 695 696 704 707 707 707 706 706 709 713 720 724 726 728 730 732 738 744 747 750 753 755 759 763 767 771 775 778 783 786 789 792 795 799 802 805 808 811 814 817 820 822 825 828 831 834 836 839 841 843 845 847 849 850 852 853 855 856 857 859 860 862 863 864
695 704 709 714 722 726 726 727 727 724 717 710 704 697 695 697 694 695 704 707 704 703 700 698 704 708 707 708 710 710 713 721 729 731 729 729 730 730 732 736 740 744 747 751 756 760 764 769 773 777 780 783 787 790 794 797 801 804 807 811 814 816 819 821 824 827 829 832 835 838 840 842 844 846 848 849 851 853 854 856 858 859 860 862 864 865
691 700 708 716 725 727 727 727 728 731 726 712 702 696 693 694 691 689 701 709 705 703 704 701 703 707 706 710 716 716 720 730 737 734 729 729 732 733 734 736 738 742 746 751 757 761 765 769 772 775 779 781 785 789 792 795 800 803 806 809 812 815 817 820 822 825 828 831 833 836 839 841 843 845 847 848 850 852 854 856 857 859 860 862 863 865
695 702 707 714 723 723 723 728 733 732 722 708 700 695 692 695 692 688 703 716 708 701 703 702 702 705 705 710 716 717 723 735 738 728 722 725 729 730 734 738 740 744 747 750 754 758 763 767 771 775 778 780 783 786 790 793 797 800 804 807 810 813 815 817 820 823 826 829 832 835 838 840 842 844 846 847 849 851 854 855 857 859 861 862 863 865
704 708 710 715 723 724 723 728 731 723 711 702 698 696 694 693 690 699 720 724 707 699 702 700 699 703 705 709 713 715 720 727 726 716 714 719 724 727 730 734 737 742 746 749 753 757 761 765 769 772 775 778 781 784 788 792 795 799 802 805 808 811 813 815 818 821 825 828 831 834 837 839 841 843 845 847 849 851 853 855 857 859 861 862 864 865
708 711 716 718 722 725 725 728 727 717 704 698 696 695 693 692 698 713 724 715 701 699 701 697 695 699 704 708 711 710 709 708 706 704 709 716 722 726 729 732 735 738 742 747 752 756 760 763 766 770 773 777 780 784 787 791 794 797 801 804 807 809 811 814 818 821 824 827 830 833 836 838 840 842 844 846 848 851 853 855 856 859 860 862 864 865
710 713 719 720 722 725 723 724 728 718 701 695 696 694 692 700 712 717 709 701 700 700 697 695 694 695 700 705 705 703 701 701 702 704 710 715 720 724 729 733 736 740 742 746 750 754 758 762 766 769 773 776 779 783 786 789 793 796 799 802 805 807 811 814 817 820 823 826 829 832 835 837 840 842 844 846 848 850 853 854 857 859 860 862 863 864
706 711 719 719 720 724 724 726 729 721 704 697 697 695 695 703 709 705 699 699 701 699 696 694 694 695 698 700 700 700 700 702 704 706 710 714 718 722 727 730 734 738 741 745 749 752 756 761 765 769 772 775 779 782 785 788 792 795 798 800 803 807 811 814 816 819 823 826 829 832 834 837 839 841 844 846 848 850 852 854 856 858 860 861 862 864
703 708 715 714 714 719 723 724 723 715 706 702 700 699 700 701 699 698 699 700 699 698 697 695 694 696 696 695 696 700 700 702 705 708 711 715 718 721 725 729 732 736 739 743 747 751 755 759 764 768 771 775 778 781 784 787 790 794 796 799 803 806 809 812 816 819 822 825 828 831 834 836 839 841 843 845 847 849 851 853 856 857 859 861 862 863
702 702 703 707 710 712 714 714 713 710 707 704 701 700 701 699 697 698 699 699 698 698 697 695 695 696 696 695 696 698 700 702 704 706 709 713 717 720 724 728 731 735 738 742 746 750 754 758 762 767 771 774 777 780 784 786 789 792 795 798 802 805 808 811 814 817 821 824 827 830 833 836 838 840 842 845 847 848 850 852 854 856 858 859 861 861
700 698 698 704 709 711 711 710 710 708 706 703 702 702 701 700 699 698 697 698 699 697 696 696 696 695 697 698 698 698 700 702 703 706 709 712 716 721 724 728 732 735 739 743 746 749 753 757 761 765 770 774 777 780 783 785 787 790 793 797 800 803 806 810 813 816 820 823 826 829 832 835 837 840 842 844 846 848 849 851 853 855 857 858 859 860
700 698 700 705 709 713 715 712 708 706 705 703 702 702 700 700 700 699 699 699 699 697 697 697 697 696 698 699 699 700 703 704 706 710 712 715 719 722 725 728 732 735 738 741 744 748 752 756 760 764 768 772 776 779 782 785 787 789 792 796 799 802 805 808 811 815 818 821 825 828 830 833 836 839 841 844 846 848 850 851 853 854 855 856 858 859
705 700 703 709 712 714 715 712 709 709 707 704 703 702 701 701 701 701 701 701 700 699 698 698 698 698 698 699 700 702 705 707 708 711 714 717 720 722 724 727 731 734 738 741 744 747 751 754 759 763 766 771 774 778 781 784 787 789 792 795 798 801 804 807 810 814 817 820 824 827 829 832 835 837 840 843 845 847 848 850 851 853 853 854 855 856
709 707 708 712 715 717 716 714 712 712 711 708 705 703 703 702 702 702 702 702 701 701 701 700 700 699 698 700 702 703 706 709 710 711 714 718 720 722 725 728 731 734 738 741 744 747 750 753 757 761 765 769 772 776 780 783 786 789 791 794 797 800 803 806 810 813 816 820 823 826 828 831 834 836 839 841 844 846 848 849 851 852 853 854 854 855
711 712 712 714 717 719 715 712 711 711 712 711 707 704 704 704 703 703 704 704 704 704 703 702 702 702 701 702 702 703 706 710 711 712 714 717 720 722 726 729 733 736 738 741 744 747 749 753 756 760 764 768 771 775 778 781 785 787 790 793 795 798 801 805 809 812 816 818 821 824 827 830 833 835 838 840 842 844 847 848 850 851 852 853 854 854
711 712 711 711 714 713 710 708 709 710 711 712 709 707 707 705 705 705 706 706 706 705 704 704 704 704 704 704 704 704 705 708 711 713 714 717 720 722 725 728 732 735 738 741 743 746 750 753 756 760 763 767 770 773 777 780 783 786 789 791 794 796 800 803 807 811 814 816 819 822 825 828 831 834 836 838 840 842 844 846 848 849 851 851 852 852